• In Lithuania
  • List of Countries
  • For 7 days
  • Water Temperature
  • Satellite Maps
  • Weather Map
  • Weather Widgets
  • user-avatar
    Login

    Hourly Weather San Fernando de Apure

    Today, 28 May, Monday

    Time Temperature Precipitation Wind Pressure Humidity
    00:00 +27°C° 0.9 mm 1 mps 754 mmHg 86%
    01:00 +27°C° 0.9 mm 1 mps 754 mmHg 87%
    02:00 +27°C° 0.9 mm 1 mps 754 mmHg 88%
    03:00 +26°C° 0 mm 1 mps 754 mmHg 88%
    04:00 +26°C° 0 mm 1 mps 754 mmHg 88%
    05:00 +26°C° 0 mm 2 mps 754 mmHg 88%
    06:00 +27°C° 0 mm 2 mps 754 mmHg 86%
    07:00 +27°C° 0 mm 3 mps 755 mmHg 83%
    08:00 +28°C° 0 mm 3 mps 755 mmHg 81%
    09:00 +29°C° 0 mm 3 mps 755 mmHg 75%
    10:00 +32°C° 0 mm 4 mps 755 mmHg 68%
    11:00 +33°C° 0 mm 4 mps 755 mmHg 61%
    12:00 +34°C° 0.3 mm 4 mps 755 mmHg 60%
    13:00 +34°C° 0.3 mm 3 mps 754 mmHg 59%
    14:00 +35°C° 0.3 mm 3 mps 754 mmHg 58%
    15:00 +35°C° 0.4 mm 3 mps 753 mmHg 60%
    16:00 +35°C° 0.4 mm 2 mps 753 mmHg 62%
    17:00 +33°C° 0.4 mm 1 mps 752 mmHg 64%
    18:00 +32°C° 0.1 mm 1 mps 752 mmHg 68%
    19:00 +30°C° 0.1 mm 1 mps 753 mmHg 72%
    20:00 +29°C° 0.1 mm 1 mps 753 mmHg 76%
    21:00 +28°C° 0 mm 1 mps 754 mmHg 79%
    22:00 +28°C° 0 mm 1 mps 754 mmHg 82%
    23:00 +27°C° 0 mm 1 mps 755 mmHg 85%

    Tomorrow, 29 May, Tuesday

    Time Temperature Precipitation Wind Pressure Humidity
    00:00 +27°C° 0.4 mm 1 mps 754 mmHg 86%
    01:00 +27°C° 0.4 mm 1 mps 754 mmHg 88%
    02:00 +26°C° 0.4 mm 1 mps 754 mmHg 89%
    03:00 +26°C° 0.5 mm 1 mps 754 mmHg 89%
    04:00 +26°C° 0.5 mm 1 mps 754 mmHg 88%
    05:00 +26°C° 0.5 mm 1 mps 754 mmHg 87%
    06:00 +27°C° 0 mm 1 mps 754 mmHg 85%
    07:00 +28°C° 0 mm 2 mps 755 mmHg 83%
    08:00 +28°C° 0 mm 2 mps 755 mmHg 81%
    09:00 +30°C° 0 mm 2 mps 755 mmHg 74%
    10:00 +31°C° 0 mm 3 mps 756 mmHg 67%
    11:00 +33°C° 0 mm 3 mps 756 mmHg 61%
    12:00 +34°C° 0.2 mm 3 mps 755 mmHg 59%
    13:00 +35°C° 0.2 mm 3 mps 754 mmHg 57%
    14:00 +36°C° 0.2 mm 2 mps 754 mmHg 55%
    15:00 +35°C° 0.4 mm 2 mps 753 mmHg 57%
    16:00 +35°C° 0.4 mm 2 mps 752 mmHg 60%
    17:00 +33°C° 0.4 mm 1 mps 752 mmHg 63%
    18:00 +32°C° 0 mm 1 mps 752 mmHg 69%
    19:00 +30°C° 0 mm 2 mps 753 mmHg 75%
    20:00 +28°C° 0 mm 2 mps 753 mmHg 81%
    21:00 +28°C° 0 mm 2 mps 754 mmHg 84%
    22:00 +27°C° 0 mm 2 mps 754 mmHg 87%
    23:00 +27°C° 0 mm 1 mps 755 mmHg 90%

    Day after tomorrow, 30 May, Wednesday

    Time Temperature Precipitation Wind Pressure Humidity
    00:00 +27°C° 0.3 mm 1 mps 755 mmHg 91%
    01:00 +26°C° 0.3 mm 1 mps 754 mmHg 92%
    02:00 +26°C° 0.3 mm 1 mps 754 mmHg 93%
    03:00 +26°C° 0.2 mm 1 mps 754 mmHg 92%
    04:00 +24°C° 0.2 mm 0 mps 754 mmHg 90%
    05:00 +24°C° 0.2 mm 0 mps 754 mmHg 89%
    06:00 +27°C° 0.1 mm 1 mps 754 mmHg 88%
    07:00 +27°C° 0.1 mm 1 mps 755 mmHg 87%
    08:00 +27°C° 0.1 mm 1 mps 755 mmHg 86%
    09:00 +29°C° 0 mm 1 mps 755 mmHg 80%
    10:00 +30°C° 0 mm 2 mps 756 mmHg 73%
    11:00 +31°C° 0 mm 3 mps 756 mmHg 67%
    12:00 +31°C° 0 mm 3 mps 755 mmHg 64%
    13:00 +33°C° 0 mm 3 mps 754 mmHg 62%
    14:00 +34°C° 0 mm 3 mps 753 mmHg 59%
    15:00 +34°C° 0 mm 2 mps 753 mmHg 61%
    16:00 +34°C° 0 mm 2 mps 752 mmHg 63%
    17:00 +32°C° 0 mm 1 mps 752 mmHg 65%
    18:00 +31°C° 0 mm 1 mps 752 mmHg 68%
    19:00 +30°C° 0 mm 1 mps 752 mmHg 71%
    20:00 +28°C° 0 mm 1 mps 752 mmHg 74%
    21:00 +28°C° 0 mm 1 mps 753 mmHg 74%
    22:00 +28°C° 0 mm 1 mps 753 mmHg 73%
    23:00 +27°C° 0 mm 1 mps 754 mmHg 73%

    31 May, Thursday

    Time Temperature Precipitation Wind Pressure Humidity
    00:00 +27°C° 0 mm 1 mps 753 mmHg 73%
    01:00 +27°C° 0 mm 1 mps 753 mmHg 73%
    02:00 +27°C° 0 mm 1 mps 753 mmHg 74%
    03:00 +26°C° 0 mm 1 mps 753 mmHg 75%
    04:00 +26°C° 0 mm 1 mps 753 mmHg 76%
    05:00 +26°C° 0 mm 2 mps 753 mmHg 77%
    06:00 +27°C° 0 mm 2 mps 754 mmHg 76%
    07:00 +27°C° 0 mm 2 mps 754 mmHg 75%
    08:00 +28°C° 0 mm 3 mps 755 mmHg 73%
    09:00 +30°C° 0 mm 3 mps 755 mmHg 68%
    10:00 +31°C° 0 mm 3 mps 755 mmHg 63%
    11:00 +34°C° 0 mm 3 mps 755 mmHg 59%
    12:00 +35°C° 0 mm 3 mps 754 mmHg 56%
    13:00 +36°C° 0 mm 3 mps 753 mmHg 53%
    14:00 +36°C° 0 mm 2 mps 752 mmHg 50%
    15:00 +36°C° 0 mm 2 mps 752 mmHg 52%
    16:00 +35°C° 0 mm 1 mps 751 mmHg 53%
    17:00 +35°C° 0 mm 1 mps 751 mmHg 55%
    18:00 +33°C° 0 mm 1 mps 752 mmHg 59%
    19:00 +32°C° 0 mm 1 mps 752 mmHg 63%
    20:00 +30°C° 0 mm 1 mps 753 mmHg 66%
    21:00 +29°C° 0 mm 1 mps 753 mmHg 71%
    22:00 +29°C° 0 mm 1 mps 753 mmHg 75%
    23:00 +28°C° 0 mm 2 mps 754 mmHg 80%

    1 June, Friday

    Time Temperature Precipitation Wind Pressure Humidity
    00:00 +27°C° 0.3 mm 1 mps 753 mmHg 83%
    01:00 +27°C° 0.3 mm 1 mps 753 mmHg 85%
    02:00 +27°C° 0.3 mm 1 mps 753 mmHg 88%
    03:00 +27°C° 0.2 mm 1 mps 753 mmHg 87%
    04:00 +24°C° 0.2 mm 0 mps 753 mmHg 87%
    05:00 +24°C° 0.2 mm 0 mps 753 mmHg 87%
    06:00 +27°C° 0 mm 1 mps 754 mmHg 85%
    07:00 +27°C° 0 mm 1 mps 754 mmHg 84%
    08:00 +28°C° 0 mm 1 mps 755 mmHg 82%
    09:00 +29°C° 0.1 mm 1 mps 755 mmHg 77%
    10:00 +31°C° 0.1 mm 2 mps 755 mmHg 71%
    11:00 +32°C° 0.1 mm 2 mps 755 mmHg 65%
    12:00 +32°C° 1.4 mm 2 mps 755 mmHg 67%
    13:00 +32°C° 1.4 mm 2 mps 754 mmHg 69%
    14:00 +32°C° 1.4 mm 2 mps 753 mmHg 71%
    15:00 +32°C° 1.6 mm 2 mps 753 mmHg 73%
    16:00 +31°C° 1.6 mm 1 mps 752 mmHg 76%
    17:00 +31°C° 1.6 mm 1 mps 752 mmHg 78%
    18:00 +30°C° 0.1 mm 1 mps 752 mmHg 81%
    19:00 +29°C° 0.1 mm 1 mps 753 mmHg 84%
    20:00 +28°C° 0.1 mm 1 mps 753 mmHg 87%
    21:00 +27°C° 0 mm 1 mps 754 mmHg 86%
    22:00 +27°C° 0 mm 1 mps 754 mmHg 86%
    23:00 +25°C° 0 mm 0 mps 754 mmHg 86%

    2 June, Saturday

    Time Temperature Precipitation Wind Pressure Humidity
    00:00 +27°C° 0.1 mm 1 mps 754 mmHg 86%
    01:00 +27°C° 0.1 mm 1 mps 753 mmHg 85%
    02:00 +27°C° 0.1 mm 1 mps 753 mmHg 85%
    03:00 +27°C° 0 mm 1 mps 753 mmHg 85%
    04:00 +26°C° 0 mm 1 mps 753 mmHg 84%
    05:00 +26°C° 0 mm 1 mps 753 mmHg 84%
    06:00 +27°C° 0 mm 2 mps 754 mmHg 83%
    07:00 +28°C° 0 mm 2 mps 755 mmHg 81%
    08:00 +28°C° 0 mm 3 mps 755 mmHg 79%
    09:00 +30°C° 0 mm 3 mps 755 mmHg 74%
    10:00 +31°C° 0 mm 3 mps 755 mmHg 68%
    11:00 +33°C° 0 mm 4 mps 755 mmHg 62%
    12:00 +34°C° 0 mm 3 mps 754 mmHg 61%
    13:00 +34°C° 0 mm 3 mps 753 mmHg 59%
    14:00 +35°C° 0 mm 3 mps 752 mmHg 57%
    15:00 +35°C° 0 mm 2 mps 752 mmHg 59%
    16:00 +35°C° 0 mm 2 mps 751 mmHg 60%
    17:00 +34°C° 0 mm 1 mps 751 mmHg 62%
    18:00 +32°C° 0 mm 1 mps 752 mmHg 65%
    19:00 +31°C° 0 mm 1 mps 752 mmHg 68%
    20:00 +30°C° 0 mm 1 mps 753 mmHg 72%
    21:00 +29°C° 0 mm 1 mps 753 mmHg 74%
    22:00 +29°C° 0 mm 1 mps 753 mmHg 76%
    23:00 +28°C° 0 mm 1 mps 754 mmHg 78%
    Show more